When you browse on this site, cookies collect data to enhance your experience and personalize the content and advertising you see.
Visit our Privacy Policy to learn more. By continuing to use the site, you agree to this use of cookies and data.
  • în România
  • Lista ţărilor
  • Pe 7 zile
  • Temperatura apei
  • Hartă satelitară
  • Meteo pe hartă
  • Widget-uri
  • user-avatar
    Intrare

    Meteo pe oră la Olsztyn

    Astăzi, 20 Mai, Luni

    Timp Temperatura Precipitaţii Vânt Presiune Umiditate
    00:00 +16°C° 0 mm 3 m/s 745 mmHg 97%
    01:00 +16°C° 0 mm 3 m/s 745 mmHg 98%
    02:00 +16°C° 0 mm 3 m/s 745 mmHg 98%
    03:00 +16°C° 0 mm 3 m/s 745 mmHg 98%
    04:00 +14°C° 0 mm 3 m/s 745 mmHg 98%
    05:00 +16°C° 0 mm 3 m/s 745 mmHg 96%
    06:00 +18°C° 0 mm 4 m/s 745 mmHg 93%
    07:00 +19°C° 0 mm 4 m/s 745 mmHg 91%
    08:00 +19°C° 0 mm 4 m/s 745 mmHg 88%
    09:00 +20°C° 0 mm 5 m/s 744 mmHg 86%
    10:00 +21°C° 0 mm 5 m/s 744 mmHg 83%
    11:00 +21°C° 0 mm 5 m/s 744 mmHg 83%
    12:00 +21°C° 0 mm 5 m/s 744 mmHg 83%
    13:00 +21°C° 0 mm 5 m/s 744 mmHg 83%
    14:00 +22°C° 0 mm 5 m/s 744 mmHg 80%
    15:00 +22°C° 0 mm 5 m/s 744 mmHg 78%
    16:00 +23°C° 0 mm 5 m/s 743 mmHg 75%
    17:00 +22°C° 0.3 mm 4 m/s 743 mmHg 79%
    18:00 +22°C° 0.3 mm 4 m/s 743 mmHg 82%
    19:00 +21°C° 0.3 mm 3 m/s 743 mmHg 86%
    20:00 +20°C° 0 mm 3 m/s 743 mmHg 88%
    21:00 +19°C° 0 mm 3 m/s 743 mmHg 91%
    22:00 +18°C° 0 mm 3 m/s 743 mmHg 93%
    23:00 +18°C° 0 mm 3 m/s 743 mmHg 94%

    Mâine, 21 Mai, Marţi

    Timp Temperatura Precipitaţii Vânt Presiune Umiditate
    00:00 +18°C° 0 mm 3 m/s 743 mmHg 94%
    01:00 +17°C° 0 mm 3 m/s 743 mmHg 95%
    02:00 +17°C° 0 mm 3 m/s 743 mmHg 96%
    03:00 +17°C° 0 mm 3 m/s 743 mmHg 96%
    04:00 +16°C° 0 mm 3 m/s 743 mmHg 97%
    05:00 +17°C° 0 mm 4 m/s 743 mmHg 94%
    06:00 +18°C° 0 mm 4 m/s 743 mmHg 91%
    07:00 +19°C° 0 mm 4 m/s 743 mmHg 89%
    08:00 +20°C° 0.2 mm 4 m/s 743 mmHg 82%
    09:00 +22°C° 0.2 mm 4 m/s 743 mmHg 75%
    10:00 +23°C° 0.2 mm 4 m/s 744 mmHg 69%
    11:00 +23°C° 0.7 mm 5 m/s 744 mmHg 70%
    12:00 +25°C° 0.7 mm 5 m/s 743 mmHg 72%
    13:00 +25°C° 0.7 mm 5 m/s 743 mmHg 74%
    14:00 +23°C° 0.5 mm 5 m/s 743 mmHg 74%
    15:00 +23°C° 0.5 mm 4 m/s 743 mmHg 73%
    16:00 +22°C° 0.5 mm 4 m/s 743 mmHg 73%
    17:00 +21°C° 0 mm 4 m/s 743 mmHg 77%
    18:00 +20°C° 0 mm 3 m/s 743 mmHg 81%
    19:00 +19°C° 0 mm 3 m/s 742 mmHg 85%
    20:00 +18°C° 0 mm 3 m/s 742 mmHg 87%
    21:00 +18°C° 0 mm 3 m/s 742 mmHg 90%
    22:00 +17°C° 0 mm 3 m/s 742 mmHg 93%
    23:00 +16°C° 0 mm 3 m/s 742 mmHg 93%

    Poimâine, 22 Mai, Miercuri

    Timp Temperatura Precipitaţii Vânt Presiune Umiditate
    00:00 +14°C° 0 mm 3 m/s 742 mmHg 93%
    01:00 +13°C° 0 mm 3 m/s 742 mmHg 94%
    02:00 +12°C° 0 mm 3 m/s 742 mmHg 93%
    03:00 +12°C° 0 mm 4 m/s 742 mmHg 92%
    04:00 +12°C° 0 mm 4 m/s 742 mmHg 92%
    05:00 +13°C° 0 mm 4 m/s 742 mmHg 89%
    06:00 +14°C° 0 mm 5 m/s 743 mmHg 87%
    07:00 +15°C° 0 mm 5 m/s 743 mmHg 84%
    08:00 +16°C° 0 mm 5 m/s 743 mmHg 83%
    09:00 +17°C° 0 mm 4 m/s 743 mmHg 81%
    10:00 +18°C° 0 mm 4 m/s 744 mmHg 79%
    11:00 +19°C° 0 mm 4 m/s 744 mmHg 73%
    12:00 +21°C° 0 mm 3 m/s 744 mmHg 66%
    13:00 +22°C° 0 mm 3 m/s 744 mmHg 60%
    14:00 +22°C° 0.2 mm 3 m/s 743 mmHg 62%
    15:00 +22°C° 0.2 mm 3 m/s 743 mmHg 63%
    16:00 +22°C° 0.2 mm 3 m/s 743 mmHg 65%
    17:00 +21°C° 0.2 mm 2 m/s 743 mmHg 71%
    18:00 +20°C° 0.2 mm 2 m/s 743 mmHg 77%
    19:00 +19°C° 0.2 mm 2 m/s 744 mmHg 83%
    20:00 +17°C° 0 mm 2 m/s 744 mmHg 86%
    21:00 +16°C° 0 mm 2 m/s 744 mmHg 90%
    22:00 +15°C° 0 mm 1 m/s 744 mmHg 93%
    23:00 +15°C° 0 mm 1 m/s 744 mmHg 93%

    23 Mai, Joi

    Timp Temperatura Precipitaţii Vânt Presiune Umiditate
    00:00 +14°C° 0 mm 1 m/s 744 mmHg 94%
    01:00 +14°C° 0 mm 1 m/s 744 mmHg 94%
    02:00 +14°C° 0 mm 1 m/s 745 mmHg 95%
    03:00 +13°C° 0 mm 1 m/s 745 mmHg 96%
    04:00 +13°C° 0 mm 2 m/s 745 mmHg 97%
    05:00 +14°C° 0 mm 2 m/s 745 mmHg 94%
    06:00 +14°C° 0 mm 3 m/s 745 mmHg 90%
    07:00 +15°C° 0 mm 4 m/s 746 mmHg 87%
    08:00 +15°C° 0 mm 4 m/s 746 mmHg 87%
    09:00 +14°C° 0 mm 5 m/s 746 mmHg 87%
    10:00 +14°C° 0 mm 5 m/s 746 mmHg 87%
    11:00 +14°C° 0 mm 6 m/s 747 mmHg 84%
    12:00 +14°C° 0 mm 6 m/s 747 mmHg 81%
    13:00 +14°C° 0 mm 6 m/s 747 mmHg 77%
    14:00 +14°C° 0 mm 6 m/s 747 mmHg 74%
    15:00 +13°C° 0 mm 6 m/s 747 mmHg 71%
    16:00 +13°C° 0 mm 6 m/s 748 mmHg 67%
    17:00 +11°C° 0 mm 6 m/s 748 mmHg 71%
    18:00 +12°C° 0 mm 5 m/s 748 mmHg 75%
    19:00 +10°C° 0 mm 5 m/s 748 mmHg 79%
    20:00 +9°C° 0 mm 5 m/s 749 mmHg 82%
    21:00 +8°C° 0 mm 4 m/s 749 mmHg 85%
    22:00 +7°C° 0 mm 4 m/s 749 mmHg 87%
    23:00 +7°C° 0 mm 4 m/s 749 mmHg 89%

    24 Mai, Vineri

    Timp Temperatura Precipitaţii Vânt Presiune Umiditate
    00:00 +8°C° 0 mm 3 m/s 749 mmHg 91%
    01:00 +7°C° 0 mm 3 m/s 749 mmHg 93%
    02:00 +7°C° 0 mm 3 m/s 749 mmHg 94%
    03:00 +7°C° 0 mm 3 m/s 749 mmHg 95%
    04:00 +7°C° 0 mm 3 m/s 748 mmHg 96%
    05:00 +8°C° 0 mm 3 m/s 748 mmHg 88%
    06:00 +10°C° 0 mm 3 m/s 748 mmHg 81%
    07:00 +12°C° 0 mm 3 m/s 748 mmHg 73%
    08:00 +13°C° 0 mm 4 m/s 748 mmHg 69%
    09:00 +15°C° 0 mm 4 m/s 748 mmHg 64%
    10:00 +17°C° 0 mm 4 m/s 748 mmHg 60%
    11:00 +18°C° 0.1 mm 4 m/s 747 mmHg 60%
    12:00 +18°C° 0.1 mm 4 m/s 747 mmHg 59%
    13:00 +19°C° 0.1 mm 4 m/s 747 mmHg 59%
    14:00 +19°C° 0.2 mm 3 m/s 747 mmHg 62%
    15:00 +19°C° 0.2 mm 3 m/s 746 mmHg 64%
    16:00 +18°C° 0.2 mm 3 m/s 746 mmHg 66%
    17:00 +17°C° 0.1 mm 2 m/s 746 mmHg 72%
    18:00 +16°C° 0.1 mm 1 m/s 746 mmHg 77%
    19:00 +15°C° 0.1 mm 1 m/s 746 mmHg 82%
    20:00 +14°C° 0 mm 1 m/s 745 mmHg 85%
    21:00 +13°C° 0 mm 1 m/s 745 mmHg 88%
    22:00 +12°C° 0 mm 2 m/s 745 mmHg 91%
    23:00 +12°C° 0 mm 2 m/s 745 mmHg 91%

    25 Mai, Sâmbătă

    Timp Temperatura Precipitaţii Vânt Presiune Umiditate
    00:00 +10°C° 0 mm 2 m/s 745 mmHg 92%
    01:00 +10°C° 0 mm 2 m/s 745 mmHg 93%
    02:00 +10°C° 0 mm 2 m/s 745 mmHg 93%
    03:00 +10°C° 0 mm 2 m/s 745 mmHg 92%
    04:00 +11°C° 0 mm 3 m/s 745 mmHg 92%
    05:00 +11°C° 0.6 mm 3 m/s 745 mmHg 93%
    06:00 +11°C° 0.6 mm 3 m/s 745 mmHg 93%
    07:00 +13°C° 0.6 mm 2 m/s 745 mmHg 94%
    08:00 +13°C° 0.3 mm 3 m/s 745 mmHg 90%
    09:00 +14°C° 0.3 mm 4 m/s 745 mmHg 86%
    10:00 +15°C° 0.3 mm 4 m/s 745 mmHg 82%
    11:00 +17°C° 0.4 mm 4 m/s 745 mmHg 77%
    12:00 +18°C° 0.4 mm 4 m/s 745 mmHg 71%
    13:00 +18°C° 0.4 mm 4 m/s 745 mmHg 66%
    14:00 +17°C° 0.1 mm 5 m/s 746 mmHg 66%
    15:00 +16°C° 0.1 mm 5 m/s 746 mmHg 66%
    16:00 +16°C° 0.1 mm 5 m/s 746 mmHg 66%
    17:00 +14°C° 0 mm 4 m/s 746 mmHg 71%
    18:00 +12°C° 0 mm 4 m/s 746 mmHg 76%
    19:00 +11°C° 0 mm 3 m/s 747 mmHg 81%
    20:00 +9°C° 0 mm 3 m/s 747 mmHg 85%
    21:00 +7°C° 0 mm 2 m/s 747 mmHg 90%
    22:00 +6°C° 0 mm 2 m/s 748 mmHg 95%
    23:00 +7°C° 0 mm 1 m/s 748 mmHg 95%
    Arată mai mult